sat.trackr.live / text

‹ back to catalog

STARLINK-2068

NORAD 47722 · 2021-017A

PAYLOAD ACTIVE UNKNOWN

§ Identity

Operator
Country
US
Launch date
2021-03-04
Launch site
AFETR
Launch vehicle
Mass (kg)
RCS (m²)

Purposes: comms

External: N2YO · Heavens-Above · Gunter

§ Orbital elements

Epoch: 2026-09-19T22:53:12.131232Z

Period
94.01 min
Inclination
53.1621°
Eccentricity
0.0001439
Mean motion
15.31705360 rev/d
Perigee alt
469.7 km
Apogee alt
471.7 km
Semi-major
6,848.9 km
B*
2.0453e-5
RAAN
6.9454°
Arg perigee
57.0864°
Mean anomaly
303.0275°
Rev number
30,784

§ Raw data

STARLINK-20681 47722U 21017A   26262.95361263  .00000270  00000+0  20453-4 0  99922 47722  53.1621   6.9454 0001439  57.0864 303.0275 15.31705360307840

JSON: /api/v1/satellites/47722 · /tle

For live sub-satellite position, see the globe view (requires WebGL).

§ Visibility from observer

Set your observer location to see the next 7 days of passes ≥ 10°. The values pass through the URL so the page stays shareable.

No JS? Fill the form by hand. The geolocation button needs JavaScript.